Regional Weather Roundup
Issued by NWS

Home | Current Version | Previous Version | Graphics & Text | Print | Product List | Glossary On
Versions: 1 2 3 4 5 6 7 8 9 10 11 12 13 14 15 16 17 18 19 20 21 22 23 24 25 26 27 28 29 30 31 32 33 34 35 36 37 38 39 40 41 42 43 44 45 46 47 48 49 50
000
ASUS45 KBOI 200210
RWRID
WEATHER ROUNDUP FOR IDAHO
NATIONAL WEATHER SERVICE BOISE ID
700 PM MST FRI DEC 19 2014

NOTE: "FAIR" INDICATES FEW OR NO CLOUDS BELOW 12000 FEET
WITH NO SIGNIFICANT WEATHER AND/OR OBSTRUCTIONS TO VISIBILITY

IDZ012-014-200300-
SOUTHWEST IDAHO


CITY           SKY/WX    TMP DP  RH WIND       PRES   REMARKS
BOISE          MOCLDY    39  36  89 SE6       30.07R WCI  35
CALDWELL       MOCLDY    39  30  70 E7        30.08S WCI  34
MOUNTAIN HOME  CLOUDY    36  34  93 E9        30.07R WCI  29
$$

IDZ016-017-200300-
SOUTHCENTRAL IDAHO


CITY           SKY/WX    TMP DP  RH WIND       PRES   REMARKS
BURLEY         LGT RAIN  37  34  89 SW6       30.08S WCI  32
JEROME         CLOUDY    37  35  92 SE7       30.08S WCI  32
TWIN FALLS     CLOUDY    40  35  83 S15       30.07S WCI  32
$$

IDZ019>023-200300-
SOUTHEAST IDAHO


CITY           SKY/WX    TMP DP  RH WIND       PRES   REMARKS
IDAHO FALLS    CLOUDY    34  32  92 S16G22    30.06S WCI  24
POCATELLO      LGT RAIN  36  33  89 S10       30.09S WCI  28
REXBURG        LGT SNOW  32  32 100 S5        30.06R FOG     WCI  27
$$

IDZ006-010-011-018-031-032-200300-
CENTRAL IDAHO MOUNTAINS


CITY           SKY/WX    TMP DP  RH WIND       PRES   REMARKS
MCCALL         CLOUDY    32  30  92 MISG      30.00R
HAILEY         CLOUDY    32  32 100 SE9       30.05F WCI  24
STANLEY          N/A     30  26  85 CALM      30.00S
SALMON         CLOUDY    32  27  80 SW5       29.99R WCI  27
CHALLIS        PTCLDY    28  26  92 W3        29.99R
$$

IDZ002-004-006-007-026-200300-
NORTHERN IDAHO


CITY           SKY/WX    TMP DP  RH WIND       PRES   REMARKS
LEWISTON       FOG       39  38  96 CALM      30.03R VSB 1/4
LOWELL           N/A     39  38  96 CALM      30.08S
COEUR D`ALENE  CLOUDY    39  36  87 S6        29.96S WCI  35
MULLAN PASS    LGT SNOW  29  26  89 VRB3      29.88S VSB 3/4
$$



USA.gov is the U.S. government's official web portal to all federal, state and local government web resources and services.